Location: Unspecified
(0.0000°N, 0.0000°E)
Time: 23:36:39
(UTC+02:00)

Ariane H10 - Visible Passes

Search period start: 17 September 2014 00:00
Search period end: 27 September 2014 00:00
Orbit: 422 x 35111 km, 4.6° (Epoch: 14 September)

Date Brightness Start Highest point End Pass type
(mag) Time Alt. Az. Time Alt. Az. Time Alt. Az.
17 Sep 1.9 06:51:49 27° WNW 06:53:16 48° N 06:55:48 10° ENE visible
17 Sep 8.0 17:53:07 10° W 02:59:04 26° W 02:59:04 26° W visible
18 Sep 7.1 14:18:10 10° W 14:43:33 88° N 23:44:04 76° ESE visible
19 Sep 4.9 10:53:17 10° WNW 10:58:46 72° N 20:28:16 10° E visible
20 Sep 8.2 18:38:02 10° W 03:36:12 14° W 03:36:12 14° W visible
21 Sep 7.3 14:57:09 10° W 15:40:33 89° S 00:21:10 83° SW visible
22 Sep 5.4 11:31:09 10° W 11:38:28 78° N 21:06:08 20° E visible
23 Sep 11.0 19:27:44 10° W 20:55:29 28° W 00:17:52 10° W visible
24 Sep 7.3 15:36:41 10° W 00:58:15 67° WSW 00:58:15 67° WSW visible
25 Sep 5.8 12:09:07 10° W 12:19:05 82° N 21:43:12 32° E visible
26 Sep 11.5 20:30:07 10° W 21:33:11 17° W 23:16:41 10° W visible
